Regional Weather Roundup
Issued by NWS Charleston, WV

Home | Current Version | Previous Version | Text Only | Print | Product List | Glossary Off
Versions: 1 2 3 4 5 6 7 8 9 10 11 12 13 14 15 16 17 18 19 20 21 22 23 24 25 26 27 28 29 30 31 32 33 34 35 36 37 38 39 40 41 42 43 44 45 46 47 48 49 50

011
ASUS41 KRLX 131810
RWRRLX
West Virginia Regional Weather Roundup
National Weather Service Charleston WV
100 PM EST SAT FEB 13 2016

Note: "fair" indicates few or no clouds below 12,000 feet with no
significant weather and/or obstructions to visibility.

WVZ003-131900-
Northern Panhandle of West Virginia

CITY           SKY/WX    TMP DP  RH WIND       PRES   REMARKS
WHEELING       PTSUNNY   11  -8  42 W14G29    30.37S WCI  -5
$$

WVZ009-131900-
Northwest West Virginia

CITY           SKY/WX    TMP DP  RH WIND       PRES   REMARKS
PARKERSBURG      N/A     14  -8  37 NW12G20   30.48F WCI   0
$$

WVZ006-131900-
Western West Virginia

CITY           SKY/WX    TMP DP  RH WIND       PRES   REMARKS
HUNTINGTON     PTSUNNY   20  -1  40 VRB6G17   30.49F
$$

WVZ015-131900-
West Central West Virginia

CITY           SKY/WX    TMP DP  RH WIND       PRES   REMARKS
CHARLESTON     PTSUNNY   18  -4  37 NW17G31   30.44F WCI   3
$$

WVZ022-031-131900-
North Central West Virginia

CITY           SKY/WX    TMP DP  RH WIND       PRES   REMARKS
CLARKSBURG     CLOUDY    18  -4  37 NW15G21   30.37S WCI   4
MORGANTOWN     NOT AVBL
$$

WVZ025-035-042-045-131900-
Southern West Virginia

CITY           SKY/WX    TMP DP  RH WIND       PRES   REMARKS
BECKLEY        FLURRIES  13   2  61 NW15G25   30.26F WCI  -3
LOGAN          LGT SNOW  14   7  73 NW13G21   30.38F WCI   0
BLUEFIELD      PTSUNNY   11  -3  53 NW16G28   30.22F WCI  -6
LEWISBURG      CLOUDY    16   0  49 NW8G22    30.24S WCI   5
$$

WVZ047-131900-
Northern Mountains of West Virginia

CITY           SKY/WX    TMP DP  RH WIND       PRES   REMARKS
ELKINS         PTSUNNY   10  -8  44 W10G21    30.27S WCI  -4
$$

WVZ052-131900-
Eastern Panhandle of West Virginia

CITY           SKY/WX    TMP DP  RH WIND       PRES   REMARKS
MARTINSBURG    CLOUDY    18  -2  41 W22G31    30.28S WCI   1
PETERSBURG     CLOUDY    16  -3  43 NW20G30   30.31S WCI  -1
$$




USA.gov is the U.S. government's official web portal to all federal, state and local government web resources and services.